Location: Muenchen
(48.1800°N, 11.5800°E)
Time: 07:12:37
(UTC+01:00)

Iridium 36 - Visible Passes

Search period start: 23 March 2017 00:00
Search period end: 02 April 2017 01:00
Orbit: 771 x 775 km, 86.4° (Epoch: 21 March)

Date Brightness Start Highest point End Pass type
(mag) Time Alt. Az. Time Alt. Az. Time Alt. Az.
23 Mar 7.7 22:49:21 10° N 22:51:03 20° NNE 22:51:03 20° NNE visible
24 Mar 8.2 00:30:39 10° NNW 00:31:26 13° NW 00:31:26 13° NW visible
24 Mar 7.7 22:14:50 10° NNE 22:16:24 18° NNE 22:16:24 18° NNE visible
24 Mar 7.9 23:55:15 10° NNW 23:56:47 19° NNW 23:56:47 19° NNW visible
25 Mar 7.8 21:40:45 10° NNE 21:41:46 13° NE 21:41:46 13° NE visible
25 Mar 7.6 23:20:08 10° N 23:22:09 24° N 23:22:09 24° N visible
26 Mar 7.3 23:45:16 10° N 23:47:31 26° N 23:47:31 26° N visible
27 Mar 8.1 01:27:00 10° NW 01:27:54 13° NW 01:27:54 13° NW visible
27 Mar 7.3 23:10:37 10° N 23:12:53 23° NNE 23:12:53 23° NNE visible
28 Mar 7.8 00:51:24 10° NNW 00:53:16 20° NW 00:53:16 20° NW visible
28 Mar 7.5 22:36:17 10° NNE 22:38:16 17° NE 22:38:16 17° NE visible
29 Mar 7.3 00:16:11 10° NNW 00:18:39 28° NNW 00:18:39 28° NNW visible
29 Mar 7.7 22:02:46 10° NE 22:03:39 12° NE 22:03:39 12° NE visible
29 Mar 7.0 23:41:12 10° N 23:44:02 33° N 23:44:02 33° N visible
30 Mar 8.1 01:23:33 10° NW 01:24:26 12° NW 01:24:26 12° NW visible
30 Mar 6.9 23:06:27 10° N 23:09:26 31° NNE 23:09:26 31° NNE visible
31 Mar 7.7 00:47:36 10° NNW 00:49:49 20° NW 00:49:49 20° NW visible
31 Mar 7.1 22:31:58 10° NNE 22:34:51 23° NE 22:34:51 23° NE visible
01 Apr 7.1 00:12:15 10° NNW 00:15:13 31° NW 00:15:13 31° NW visible
01 Apr 7.4 21:57:58 10° NNE 22:00:15 15° ENE 22:00:15 15° ENE visible
01 Apr 6.6 23:37:10 10° N 23:40:38 43° NNW 23:40:38 43° NNW visible
